Find Starlink 3136

NORAD ID: 49443 Int'l Des: 2021-104 Owner: SPXS Country: US Constellation: starlink operational
LEOCIRCULAR

Live Position

Loading 3D Globe...

About Starlink 3136

Description loading...

Upcoming Passes

Passes for default location (London). Set your location on the main map for personalized predictions.

Altitude History

Loading altitude history...

Two-Line Element Set

1 49443U 21104AM 26105.23025663 .00000625 00000-0 57222-4 0 9998
2 49443 53.2185 45.0808 0001103 82.6776 277.4342 15.08933314244439
Epoch: Apr 15, 2026 • Age: 7 hours

Current Status

Altitude 556.4 km
Velocity 7.58 km/s
Sub-Earth Point -47.42°S, 120.6°W
Launch Date Nov 13, 2021
Age 4.4 years
Type internet

Technical Details

Classification Payload
Mass 290.00 kg
Dry Mass 270.00 kg
Total Mass 290.00 kg
Length 0.20 m
Diameter 2.80 m
Span 9.00 m
Shape Box + pan
Manufacturer SPXS
Bus Type Starlink
Phase Status In Orbit
Owner/State SPXS/US

Most Searched